Location: Newark
(6.9000°N, 10.0000°E)
Time: 07:19:27
(UTC+00:00)

LightSail 2 - Visible Passes

Search period start: 19 October 2019 00:00
Search period end: 29 October 2019 00:00
Orbit: 707 x 722 km, 24.0° (Epoch: 18 October)

Date Brightness Start Highest point End Pass type
(mag) Time Alt. Az. Time Alt. Az. Time Alt. Az.
19 Oct 6.9 18:35:40 10° NNW 18:38:32 19° N 18:38:32 19° N visible
20 Oct 7.0 17:38:28 10° NNW 17:41:33 16° NNE 17:44:38 10° NE visible
20 Oct 7.6 19:22:50 10° NW 19:23:39 14° NW 19:23:39 14° NW visible
21 Oct 6.2 18:25:31 10° NW 18:29:50 28° NNE 18:29:50 28° NNE visible
22 Oct 6.6 17:28:14 10° NW 17:32:11 22° NNE 17:36:04 10° ENE visible
22 Oct 7.0 19:12:55 10° WNW 19:15:05 25° NW 19:15:05 25° NW visible
23 Oct 5.5 18:15:27 10° NW 18:20:22 46° NNE 18:21:23 40° NE visible
24 Oct 6.0 17:18:03 10° NW 17:22:41 34° NNE 17:27:20 10° E visible
24 Oct 6.1 19:03:12 10° WNW 19:06:48 45° W 19:06:48 45° W visible
25 Oct 5.0 18:05:33 10° WNW 18:10:41 81° NNE 18:13:16 30° ESE visible
25 Oct 8.1 19:51:55 10° W 19:52:18 12° W 19:52:18 12° W visible
26 Oct 6.2 18:53:49 10° W 18:58:34 38° SSW 18:58:50 37° SSW visible
27 Oct 5.7 17:55:54 10° WNW 18:00:55 55° SSW 18:05:25 13° SE visible
27 Oct 8.0 19:43:39 10° WSW 19:44:28 12° SW 19:44:28 12° SW visible
28 Oct 7.8 04:38:27 10° S 04:41:04 14° SSE 04:43:41 10° SE visible
28 Oct 7.2 18:44:57 10° WSW 18:48:48 21° SSW 18:51:04 16° S visible
